Location: Newark
(45.2303°N, 123.8633°W)
Time: 16:47:34
(UTC+00:00)

Envisat - Visible Passes

Search period start: 22 September 2020 00:00
Search period end: 02 October 2020 00:00
Orbit: 764 x 766 km, 98.1° (Epoch: 22 September)

Date Brightness Start Highest point End Pass type
(mag) Time Alt. Az. Time Alt. Az. Time Alt. Az.
23 Sep 6.0 02:40:08 10° SW 02:43:47 20° W 02:47:28 10° NW visible
23 Sep 6.1 13:07:26 10° NE 13:10:36 16° E 13:13:44 10° SE visible
25 Sep 6.6 03:08:01 10° WSW 03:09:33 11° W 03:11:06 10° WNW visible
25 Sep 5.5 13:31:58 10° NE 13:36:18 27° E 13:40:36 10° SSE visible
26 Sep 6.4 12:56:50 10° ENE 12:59:05 13° E 13:01:21 10° ESE visible
28 Sep 6.3 02:55:18 10° WSW 02:58:03 14° W 03:00:47 10° NW visible
28 Sep 5.9 13:20:54 10° NE 13:24:50 22° E 13:28:45 10° SE visible
01 Oct 6.1 02:43:05 10° SW 02:46:33 18° W 02:50:01 10° NW visible
01 Oct 6.1 13:09:57 10° NE 13:13:21 18° E 13:16:45 10° SE visible
